Weather History for KCDA - May, 2013

Change the Weather History Date:

Thursday, May 9, 2013

  Actual Average (K1V4) Record (K1V4)
Temperature  
Mean Temperature 64 °F 54 °F  
Max Temperature 72 °F 67 °F 92 °F (1979)
Min Temperature 55 °F 41 °F 20 °F (1950)
Degree Days  
Heating Degree Days 2 11  
Month to date heating degree days 113  
Since 1 July heating degree days 7532  
Cooling Degree Days 0 0  
Month to date cooling degree days 0  
Year to date cooling degree days 1  
Growing Degree Days 14 (Base 50)    
Moisture  
Dew Point 50 °F    
Average Humidity 64    
Maximum Humidity 89    
Minimum Humidity 35    
Precipitation  
Precipitation 0.00 in 0.10 in 1.75 in (2000)
Month to date precipitation 0.93  
Year to date precipitation 10.98  
Sea Level Pressure  
Sea Level Pressure 29.95 in    
Wind  
Wind Speed 3 mph (South)    
Max Wind Speed 12 mph    
Max Gust Speed 22 mph    
Visibility 10 miles    
Events Rain    
T = Trace of Precipitation, MM = Missing Value Source: NWS Daily Summary

Daily Weather History Graph

Daily Weather History Graph

Search for Another Location

Airport or City:

Trip Planner

Search our weather history database for the weather conditions in past years. The results will help you decide how hot, cold, wet, or windy it might be!

Date:

Astronomy

May. 09, 2013 Rise Set
Actual Time 5:27 AM EDT 8:02 PM EDT
Civil Twilight 4:54 AM EDT 8:35 PM EDT
Nautical Twilight 4:12 AM EDT 9:17 PM EDT
Astronomical Twilight 3:25 AM EDT 10:05 PM EDT
Moon 5:11 AM EDT (5/9) 7:54 PM EDT (5/9)
Length of Visible Light 15h 41m
Length of Day
14h 35m
Waning Crescent, 0% of the Moon is Illuminated
May 9
Waning Crescent
May 9
New
May 18
First Quarter
May 25
Full
May 31
Last Quarter

Hourly Weather History & Observations

Time (EDT) Temp. Dew Point Humidity Pressure Visibility Wind Dir Wind Speed Gust Speed Precip Events Conditions
12:15 AM 59.5 °F 52.7 °F 78% 30.08 in 10.0 mi Calm Calm - N/A   Clear
12:55 AM 59.2 °F 52.5 °F 79% 30.06 in 10.0 mi Calm Calm - N/A   Scattered Clouds
1:15 AM 58.1 °F 52.0 °F 80% 30.05 in 10.0 mi Calm Calm - N/A   Scattered Clouds
1:35 AM 57.7 °F 52.7 °F 83% 30.05 in 10.0 mi WNW 3.5 mph - N/A   Clear
1:55 AM 57.9 °F 52.7 °F 83% 30.04 in 10.0 mi Calm Calm - N/A   Scattered Clouds
2:35 AM 58.5 °F 51.8 °F 79% 30.02 in 10.0 mi Calm Calm - N/A   Scattered Clouds
2:55 AM 57.7 °F 52.2 °F 82% 30.02 in 10.0 mi Calm Calm - N/A   Mostly Cloudy
4:15 AM 57.9 °F 52.7 °F 83% 30.01 in 10.0 mi Calm Calm - N/A Rain Light Rain
4:55 AM 57.4 °F 53.2 °F 86% 30.01 in 7.0 mi Calm Calm - N/A Rain Light Rain
5:55 AM 56.7 °F 52.9 °F 87% 30.00 in 10.0 mi Calm Calm - N/A   Mostly Cloudy
6:35 AM 56.7 °F 53.2 °F 88% 30.00 in 10.0 mi Calm Calm - N/A   Mostly Cloudy
6:55 AM 55.8 °F 52.7 °F 89% 30.00 in 4.0 mi Calm Calm - N/A   Clear
7:55 AM 58.1 °F 54.7 °F 88% 30.00 in 10.0 mi SSE 4.6 mph - N/A   Mostly Cloudy
9:35 AM 62.1 °F 54.3 °F 76% 29.99 in 10.0 mi SSE 5.8 mph - N/A   Mostly Cloudy
9:55 AM 65.1 °F 54.5 °F 68% 29.98 in 10.0 mi South 6.9 mph - N/A   Scattered Clouds
10:15 AM 66.6 °F 53.6 °F 63% 29.98 in 10.0 mi South 9.2 mph - N/A   Scattered Clouds
10:55 AM 68.4 °F 52.0 °F 56% 29.97 in 10.0 mi SE 9.2 mph - N/A   Scattered Clouds
11:15 AM 68.7 °F 51.1 °F 53% 29.97 in 10.0 mi SSE 9.2 mph - N/A   Scattered Clouds
11:35 AM 69.8 °F 51.1 °F 51% 29.96 in 10.0 mi South 9.2 mph 17.3 mph N/A   Scattered Clouds
11:55 AM 69.3 °F 50.4 °F 51% 29.96 in 10.0 mi South 10.4 mph - N/A   Scattered Clouds
12:15 PM 71.1 °F 48.6 °F 45% 29.95 in 10.0 mi SSE 11.5 mph - N/A   Mostly Cloudy
12:35 PM 71.8 °F 47.7 °F 42% 29.95 in 10.0 mi South 10.4 mph 18.4 mph N/A   Scattered Clouds
12:55 PM 71.2 °F 46.2 °F 41% 29.94 in 10.0 mi SSW 5.8 mph - N/A   Mostly Cloudy
1:15 PM 71.2 °F 46.4 °F 41% 29.93 in 10.0 mi SSW 10.4 mph 16.1 mph N/A   Scattered Clouds
1:55 PM 70.3 °F 44.1 °F 39% 29.92 in 10.0 mi South 10.4 mph - N/A   Mostly Cloudy
2:15 PM 70.0 °F 45.9 °F 42% 29.91 in 10.0 mi SSE 9.2 mph - N/A   Overcast
2:35 PM 69.1 °F 46.9 °F 45% 29.91 in 10.0 mi SSE 11.5 mph - N/A   Overcast
2:55 PM 72.0 °F 48.9 °F 44% 29.91 in 10.0 mi South 10.4 mph 16.1 mph N/A   Mostly Cloudy
3:15 PM 72.5 °F 44.6 °F 37% 29.90 in 10.0 mi SSW 9.2 mph - N/A   Scattered Clouds
3:35 PM 71.8 °F 42.8 °F 35% 29.90 in 10.0 mi South 9.2 mph 16.1 mph N/A   Scattered Clouds
4:15 PM 70.7 °F 42.3 °F 36% 29.89 in 10.0 mi SSW 11.5 mph 16.1 mph N/A   Scattered Clouds
4:35 PM 68.5 °F 48.2 °F 48% 29.90 in 10.0 mi WSW 11.5 mph 21.9 mph N/A   Scattered Clouds
4:55 PM 64.6 °F 50.2 °F 60% 29.91 in 10.0 mi WSW 10.4 mph 18.4 mph N/A   Scattered Clouds
5:15 PM 63.5 °F 48.9 °F 59% 29.91 in 10.0 mi WSW 10.4 mph 20.7 mph N/A   Scattered Clouds
5:35 PM 63.5 °F 49.1 °F 59% 29.90 in 10.0 mi WSW 3.5 mph - N/A   Overcast
5:55 PM 63.7 °F 49.6 °F 60% 29.90 in 10.0 mi Calm Calm - N/A   Overcast
6:15 PM 63.9 °F 49.1 °F 59% 29.90 in 10.0 mi Calm Calm - N/A   Mostly Cloudy
6:35 PM 63.9 °F 48.6 °F 57% 29.90 in 10.0 mi Calm Calm - N/A   Overcast
6:55 PM 63.9 °F 49.5 °F 59% 29.91 in 10.0 mi Calm Calm - N/A   Overcast
7:15 PM 63.5 °F 49.8 °F 61% 29.91 in 10.0 mi Calm Calm - N/A   Overcast
7:35 PM 63.5 °F 49.1 °F 59% 29.91 in 10.0 mi Calm Calm - N/A   Overcast
8:15 PM 62.6 °F 50.0 °F 63% 29.92 in 10.0 mi Calm Calm - N/A   Overcast
8:35 PM 61.7 °F 50.0 °F 65% 29.93 in 10.0 mi Calm Calm - N/A   Overcast
8:55 PM 61.7 °F 50.0 °F 65% 29.93 in 10.0 mi Calm Calm - N/A   Overcast
9:15 PM 61.9 °F 50.0 °F 65% 29.93 in 10.0 mi Calm Calm - N/A   Overcast
9:35 PM 60.8 °F 50.7 °F 69% 29.94 in 10.0 mi Calm Calm - N/A Rain Light Rain
9:55 PM 59.9 °F 52.2 °F 76% 29.94 in 10.0 mi Calm Calm - N/A   Light Drizzle
10:15 PM 59.9 °F 51.8 °F 75% 29.94 in 10.0 mi Calm Calm - N/A   Overcast
10:35 PM 60.1 °F 51.4 °F 73% 29.94 in 10.0 mi Calm Calm - N/A   Light Drizzle
10:55 PM 59.7 °F 51.8 °F 75% 29.93 in 10.0 mi Calm Calm - N/A Rain Light Rain
11:15 PM 59.4 °F 51.8 °F 76% 29.93 in 10.0 mi Calm Calm - N/A   Light Drizzle
11:35 PM 58.5 °F 52.2 °F 80% 29.93 in 10.0 mi Calm Calm - N/A   Light Drizzle
11:55 PM 58.5 °F 52.2 °F 80% 29.93 in 10.0 mi Calm Calm - N/A   Overcast